Time,TemperatureF,DewpointF,PressureIn,WindDirection,WindDirectionDegrees,WindSpeedMPH,WindSpeedGustMPH,Humidity,HourlyPrecipIn,Conditions,Clouds,dailyrainin,SoftwareType,DateUTC
2013-02-22 06:01:00,32.0,31.0,29.94,North,0,0.0,0.0,95,0.00,,,0.25,,2013-02-22 11:01:00,
2013-02-22 06:11:00,32.0,31.0,29.95,North,0,0.0,0.0,95,0.00,,,0.25,,2013-02-22 11:11:00,
2013-02-22 06:22:00,32.0,31.0,29.95,North,0,0.0,0.0,95,0.00,,,0.25,,2013-02-22 11:22:00,
2013-02-22 06:32:00,32.0,31.0,29.95,North,0,0.0,0.0,95,0.00,,,0.25,,2013-02-22 11:32:00,
2013-02-22 06:42:00,33.0,32.0,29.94,NE,44,0.0,0.0,95,0.00,,,0.25,,2013-02-22 11:42:00,
2013-02-22 06:52:00,33.0,32.0,29.94,NE,44,0.0,0.0,95,0.00,,,0.25,,2013-02-22 11:52:00,
2013-02-22 07:02:00,33.0,32.0,29.95,NE,44,0.0,0.0,95,0.00,,,0.25,,2013-02-22 12:02:00,
2013-02-22 07:11:00,33.0,32.0,29.95,NE,44,0.0,0.0,95,0.00,,,0.25,,2013-02-22 12:11:00,
2013-02-22 07:22:00,33.0,32.0,29.95,NE,44,0.0,3.0,95,0.00,,,0.25,,2013-02-22 12:22:00,
2013-02-22 07:32:00,34.0,33.0,29.95,SW,223,0.0,0.0,95,0.00,,,0.25,,2013-02-22 12:32:00,
2013-02-22 07:42:00,34.0,33.0,29.95,SW,223,0.0,0.0,95,0.00,,,0.25,,2013-02-22 12:42:00,
2013-02-22 07:52:00,33.0,32.0,0.30,WNW,299,0.0,0.0,95,0.00,,,0.25,,2013-02-22 12:52:00,
2013-02-22 08:02:00,34.0,33.0,29.96,WNW,299,0.0,0.0,95,0.00,,,0.25,,2013-02-22 13:02:00,
2013-02-22 08:11:00,34.0,33.0,29.96,WNW,299,0.0,0.0,95,0.00,,,0.25,,2013-02-22 13:11:00,
2013-02-22 08:22:00,34.0,33.0,29.96,WNW,299,0.0,0.0,95,0.00,,,0.25,,2013-02-22 13:22:00,
2013-02-22 08:32:00,34.0,33.0,29.97,WNW,299,0.0,0.0,95,0.00,,,0.25,,2013-02-22 13:32:00,
2013-02-22 08:42:00,33.0,32.0,29.97,WNW,299,0.0,0.0,95,0.00,,,0.25,,2013-02-22 13:42:00,
2013-02-22 08:52:00,33.0,32.0,29.97,WNW,299,0.0,0.0,95,0.00,,,0.25,,2013-02-22 13:52:00,
2013-02-22 09:01:00,33.0,32.0,29.97,WNW,299,0.0,0.0,95,0.00,,,0.25,,2013-02-22 14:01:00,
2013-02-22 09:11:00,33.0,32.0,29.97,WNW,299,0.0,0.0,95,0.00,,,0.25,,2013-02-22 14:11:00,
2013-02-22 09:21:00,33.0,32.0,29.97,WNW,299,0.0,0.0,95,0.00,,,0.25,,2013-02-22 14:21:00,
2013-02-22 09:32:00,33.0,32.0,29.97,WNW,299,0.0,0.0,95,0.00,,,0.25,,2013-02-22 14:32:00,
2013-02-22 09:42:00,34.0,33.0,29.97,SW,230,2.0,5.0,95,0.00,,,0.25,,2013-02-22 14:42:00,
2013-02-22 09:52:00,34.0,33.0,29.97,SW,230,2.0,5.0,95,0.00,,,0.25,,2013-02-22 14:52:00,
2013-02-22 10:02:00,34.0,33.0,29.97,SW,221,3.0,5.0,95,0.00,,,0.25,,2013-02-22 15:02:00,
2013-02-22 10:11:00,34.0,33.0,29.97,SW,235,3.0,5.0,95,0.00,,,0.25,,2013-02-22 15:11:00,
2013-02-22 10:22:00,34.0,33.0,29.97,SW,235,3.0,5.0,95,0.00,,,0.25,,2013-02-22 15:22:00,
2013-02-22 10:32:00,34.0,33.0,29.97,WSW,245,2.0,3.0,95,0.00,,,0.25,,2013-02-22 15:32:00,
2013-02-22 10:42:00,34.0,33.0,29.97,WSW,245,2.0,3.0,95,0.00,,,0.25,,2013-02-22 15:42:00,
2013-02-22 10:52:00,34.0,33.0,29.98,WSW,252,5.0,7.0,95,0.00,,,0.25,,2013-02-22 15:52:00,
2013-02-22 11:02:00,35.0,34.0,29.98,WSW,244,5.0,6.0,95,0.00,,,0.25,,2013-02-22 16:02:00,
2013-02-22 11:12:00,35.0,34.0,29.98,WSW,248,3.0,7.0,95,0.00,,,0.25,,2013-02-22 16:12:00,
2013-02-22 11:22:00,35.0,34.0,29.98,WSW,248,3.0,7.0,95,0.00,,,0.25,,2013-02-22 16:22:00,
2013-02-22 11:32:00,36.0,35.0,29.99,WSW,250,6.0,8.0,95,0.00,,,0.25,,2013-02-22 16:32:00,
2013-02-22 11:42:00,36.0,35.0,29.99,WSW,250,6.0,8.0,95,0.00,,,0.25,,2013-02-22 16:42:00,
2013-02-22 11:52:00,36.0,35.0,29.99,West,267,5.0,7.0,95,0.00,,,0.25,,2013-02-22 16:52:00,
2013-02-22 12:01:00,37.0,36.0,30.00,West,265,6.0,9.0,95,0.00,,,0.25,,2013-02-22 17:01:00,
2013-02-22 12:11:00,37.0,36.0,30.01,West,274,6.0,8.0,95,0.00,,,0.25,,2013-02-22 17:11:00,
2013-02-22 12:21:00,37.0,36.0,30.01,West,274,6.0,8.0,95,0.00,,,0.25,,2013-02-22 17:21:00,
2013-02-22 12:32:00,39.0,38.0,30.00,West,275,6.0,8.0,95,0.00,,,0.25,,2013-02-22 17:32:00,
2013-02-22 12:42:00,40.0,39.0,30.00,West,274,6.0,8.0,95,0.00,,,0.25,,2013-02-22 17:42:00,
2013-02-22 12:52:00,40.0,39.0,30.00,West,274,6.0,8.0,95,0.00,,,0.25,,2013-02-22 17:52:00,
2013-02-22 13:02:00,40.0,39.0,30.00,West,273,7.0,10.0,95,0.00,,,0.25,,2013-02-22 18:02:00,
2013-02-22 13:12:00,40.0,39.0,30.01,WSW,250,8.0,15.0,95,0.01,,,0.26,,2013-02-22 18:12:00,
2013-02-22 13:22:00,40.0,39.0,30.01,WSW,250,8.0,15.0,95,0.01,,,0.26,,2013-02-22 18:22:00,
2013-02-22 13:32:00,41.0,40.0,30.01,West,274,7.0,9.0,95,0.01,,,0.26,,2013-02-22 18:32:00,
2013-02-22 13:42:00,41.0,40.0,30.01,West,274,7.0,9.0,95,0.01,,,0.26,,2013-02-22 18:42:00,
2013-02-22 13:51:00,41.0,40.0,30.01,West,274,7.0,9.0,95,0.01,,,0.26,,2013-02-22 18:51:00,
2013-02-22 14:01:00,41.0,40.0,30.01,West,264,5.0,8.0,95,0.02,,,0.27,,2013-02-22 19:01:00,
2013-02-22 14:11:00,41.0,40.0,30.01,West,259,6.0,12.0,95,0.01,,,0.27,,2013-02-22 19:11:00,
2013-02-22 14:21:00,41.0,40.0,30.01,West,259,6.0,12.0,95,0.01,,,0.27,,2013-02-22 19:21:00,
2013-02-22 14:31:00,41.0,40.0,30.01,West,270,5.0,7.0,95,0.01,,,0.27,,2013-02-22 19:31:00,
2013-02-22 14:41:00,42.0,41.0,30.01,West,271,6.0,9.0,95,0.01,,,0.27,,2013-02-22 19:41:00,
2013-02-22 14:52:00,42.0,41.0,30.01,West,271,6.0,9.0,95,0.01,,,0.27,,2013-02-22 19:52:00,
2013-02-22 15:01:00,41.0,40.0,30.01,West,264,5.0,7.0,95,0.00,,,0.27,,2013-02-22 20:01:00,
2013-02-22 15:11:00,41.0,40.0,30.01,West,264,5.0,7.0,95,0.00,,,0.27,,2013-02-22 20:11:00,
2013-02-22 15:21:00,42.0,41.0,30.00,West,262,6.0,7.0,95,0.00,,,0.27,,2013-02-22 20:21:00,
2013-02-22 15:32:00,42.0,41.0,30.00,West,267,5.0,6.0,95,0.00,,,0.27,,2013-02-22 20:32:00,
2013-02-22 15:41:00,42.0,41.0,30.00,West,267,5.0,6.0,95,0.00,,,0.27,,2013-02-22 20:41:00,
2013-02-22 15:52:00,43.0,42.0,30.00,WNW,282,5.0,6.0,95,0.00,,,0.27,,2013-02-22 20:52:00,
2013-02-22 16:01:00,43.0,42.0,30.00,WNW,286,3.0,7.0,95,0.00,,,0.27,,2013-02-22 21:01:00,
2013-02-22 16:11:00,43.0,42.0,30.01,WSW,245,6.0,9.0,95,0.00,,,0.27,,2013-02-22 21:11:00,
2013-02-22 16:21:00,43.0,42.0,30.01,WSW,245,6.0,9.0,95,0.00,,,0.27,,2013-02-22 21:21:00,
2013-02-22 16:32:00,43.0,42.0,30.01,WSW,239,2.0,6.0,95,0.00,,,0.27,,2013-02-22 21:32:00,
2013-02-22 16:42:00,43.0,42.0,30.00,West,262,3.0,8.0,95,0.00,,,0.27,,2013-02-22 21:42:00,
2013-02-22 16:52:00,43.0,42.0,30.00,West,262,3.0,8.0,95,0.00,,,0.27,,2013-02-22 21:52:00,
2013-02-22 17:01:00,44.0,42.0,30.00,West,277,7.0,9.0,92,0.00,,,0.27,,2013-02-22 22:01:00,
2013-02-22 17:11:00,44.0,41.0,30.00,WNW,287,5.0,7.0,90,0.00,,,0.27,,2013-02-22 22:11:00,
2013-02-22 17:21:00,44.0,41.0,30.00,WNW,287,5.0,7.0,90,0.00,,,0.27,,2013-02-22 22:21:00,
2013-02-22 17:31:00,43.0,39.0,30.00,West,267,0.0,7.0,87,0.00,,,0.27,,2013-02-22 22:31:00,
2013-02-22 17:42:00,43.0,39.0,30.00,WSW,257,3.0,8.0,87,0.00,,,0.27,,2013-02-22 22:42:00,
2013-02-22 17:51:00,43.0,39.0,30.00,WSW,257,3.0,8.0,87,0.00,,,0.27,,2013-02-22 22:51:00,
2013-02-22 18:01:00,43.0,39.0,30.01,West,275,7.0,7.0,85,0.00,,,0.27,,2013-02-22 23:01:00,
2013-02-22 18:11:00,42.0,38.0,30.02,WNW,284,2.0,5.0,85,0.00,,,0.27,,2013-02-22 23:11:00,
2013-02-22 18:21:00,42.0,38.0,30.02,WNW,284,2.0,5.0,85,0.00,,,0.27,,2013-02-22 23:21:00,
2013-02-22 18:52:00,41.0,37.0,30.02,West,266,1.0,3.0,85,0.00,,,0.26,,2013-02-22 23:52:00,
2013-02-22 19:02:00,40.0,36.0,30.03,WSW,254,0.0,0.0,87,0.00,,,0.24,,2013-02-23 00:02:00,
2013-02-22 19:11:00,40.0,36.0,30.03,WSW,254,0.0,0.0,87,0.00,,,0.24,,2013-02-23 00:11:00,
2013-02-22 19:21:00,40.0,36.0,30.03,WSW,254,0.0,0.0,87,0.00,,,0.24,,2013-02-23 00:21:00,
2013-02-22 19:32:00,39.0,36.0,30.03,WSW,254,0.0,0.0,88,0.00,,,0.21,,2013-02-23 00:32:00,
2013-02-22 19:42:00,39.0,36.0,30.03,WSW,254,0.0,0.0,88,0.00,,,0.21,,2013-02-23 00:42:00,
2013-02-22 19:51:00,39.0,36.0,30.03,North,355,2.0,5.0,90,0.00,,,0.21,,2013-02-23 00:51:00,
2013-02-22 20:01:00,38.0,36.0,30.03,NNE,22,3.0,3.0,92,0.00,,,0.20,,2013-02-23 01:01:00,
2013-02-22 20:11:00,38.0,36.0,30.03,North,0,0.0,0.0,92,0.00,,,0.20,,2013-02-23 01:11:00,
2013-02-22 20:21:00,38.0,36.0,30.03,North,0,0.0,0.0,92,0.00,,,0.20,,2013-02-23 01:21:00,
2013-02-22 20:32:00,37.0,35.0,30.04,North,0,0.0,0.0,93,0.00,,,0.18,,2013-02-23 01:32:00,
2013-02-22 20:42:00,37.0,35.0,30.04,North,0,0.0,0.0,93,0.00,,,0.18,,2013-02-23 01:42:00,
2013-02-22 20:51:00,37.0,35.0,30.04,North,0,0.0,0.0,93,0.00,,,0.17,,2013-02-23 01:51:00,
2013-02-22 21:01:00,36.0,35.0,30.03,North,0,0.0,0.0,95,0.00,,,0.16,,2013-02-23 02:01:00,
2013-02-22 21:11:00,36.0,35.0,30.03,North,0,0.0,0.0,95,0.00,,,0.16,,2013-02-23 02:11:00,
2013-02-22 21:21:00,36.0,35.0,30.03,North,0,0.0,0.0,95,0.00,,,0.16,,2013-02-23 02:21:00,
2013-02-22 21:32:00,36.0,35.0,30.04,North,0,0.0,0.0,95,0.00,,,0.16,,2013-02-23 02:32:00,
2013-02-22 21:42:00,36.0,35.0,30.04,North,0,0.0,0.0,95,0.00,,,0.16,,2013-02-23 02:42:00,
2013-02-22 21:52:00,35.0,34.0,30.04,North,0,0.0,0.0,95,0.00,,,0.16,,2013-02-23 02:52:00,
2013-02-22 22:02:00,35.0,34.0,30.05,North,0,0.0,0.0,95,0.00,,,0.15,,2013-02-23 03:02:00,
2013-02-22 22:11:00,35.0,34.0,30.06,North,0,0.0,0.0,95,0.00,,,0.15,,2013-02-23 03:11:00,
2013-02-22 22:21:00,35.0,34.0,30.06,North,0,0.0,0.0,95,0.00,,,0.15,,2013-02-23 03:21:00,
2013-02-22 22:32:00,34.0,33.0,30.06,North,0,0.0,0.0,95,0.00,,,0.15,,2013-02-23 03:32:00,
2013-02-22 22:42:00,34.0,33.0,30.06,North,0,0.0,0.0,95,0.00,,,0.15,,2013-02-23 03:42:00,
2013-02-22 22:51:00,34.0,33.0,30.06,North,0,0.0,0.0,95,0.00,,,0.15,,2013-02-23 03:51:00,
2013-02-22 23:01:00,34.0,33.0,30.06,North,0,0.0,0.0,95,0.00,,,0.15,,2013-02-23 04:01:00,
2013-02-22 23:11:00,34.0,33.0,30.06,North,0,0.0,0.0,95,0.00,,,0.15,,2013-02-23 04:11:00,
2013-02-22 23:21:00,34.0,33.0,30.06,North,0,0.0,0.0,95,0.00,,,0.15,,2013-02-23 04:21:00,
2013-02-22 23:32:00,34.0,33.0,30.06,North,0,0.0,0.0,95,0.00,,,0.15,,2013-02-23 04:32:00,
2013-02-22 23:41:00,34.0,33.0,30.06,North,0,0.0,0.0,95,0.00,,,0.15,,2013-02-23 04:41:00,
2013-02-22 23:51:00,34.0,33.0,30.06,North,0,0.0,0.0,95,0.00,,,0.14,,2013-02-23 04:51:00,